CAPE
1774 1806 1715 1770 1798 1668 1851 2005 1830 1953 2251 2070 2228 2344 2590 2925 2931 2934 3074 3100 3220 3123 3269 3380 3351 3308 3292 3512 3491 3283 3062 3151 3206 3302 3481 3337 3360 3125 2876 2860 2908 2833
1776 1852 1846 1830 1960 2065 2194 2035 2067 2029 2323 2393 2260 2504 2778 2909 2893 2907 3081 3115 3199 3013 3232 3241 3348 3375 3396 3315 3338 2908 2808 2803 2835 2919 3173 3152 3277 3294 3102 3085 2922 2886
1762 1832 1911 1858 1856 1917 1619 1874 2080 2086 2108 2089 2222 2578 2578 2565 2717 2867 2982 3046 3028 2869 3163 3251 3309 3456 3448 3543 3515 3082 2718 2885 2826 2897 3147 3195 3175 3287 3367 2830 2848 2932
1810 1845 1722 1654 1694 1825 1785 1971 2111 2065 1951 2092 2075 2106 2194 2200 2499 2787 2922 2924 3000 3074 3114 3174 3174 3239 3489 3557 3542 3220 3048 3051 2920 3115 3173 3258 3292 3388 3412 3353 3101 2969
1864 1896 1772 1779 1802 1987 2054 2057 1842 1905 1849 1887 1893 2038 2354 2449 2526 2436 2668 2853 2973 2995 3098 3168 3303 3230 3548 3592 3476 3184 3117 2883 2896 2970 2958 2982 3316 3356 3598 3571 3634 3456
1972 2007 2027 2003 2006 2160 2048 1975 1912 1902 1882 1749 1934 1902 1954 2297 2270 2284 2463 2476 2600 2612 2589 2761 3040 3073 3267 3516 3514 3168 3081 2976 3054 3045 2864 2963 3306 3637 3405 3506 3667 3623
2022 2074 2021 1991 2050 2097 2030 1978 2005 1990 1874 1832 1990 1886 1846 1974 2216 2282 2461 2498 2370 2536 2439 2662 2990 2987 3119 3373 3446 3297 3141 3109 3160 2997 2914 3136 3240 3358 3487 3512 3639 3615
1988 1978 2032 1991 1974 1975 2017 1996 2024 2064 2010 1991 2036 2007 1894 1820 2068 2152 2372 2448 2320 2547 2681 2733 3028 3201 3042 3097 3314 3343 3308 3036 3078 3084 2970 2962 3136 3208 3547 3611 3640 3772
1973 2050 2061 2037 1939 1946 1915 1847 1952 2018 2018 2024 1844 1828 1967 1840 1985 1979 2318 2540 2407 2525 2849 2768 2984 2995 2908 2985 3134 3339 3344 3191 3153 3229 3311 3347 3442 3559 3793 3814 3687 3688
2092 2080 1927 1938 1875 1888 1896 1820 1792 1888 2015 1931 1837 1796 1924 1974 1974 2028 2343 2600 2511 2604 2771 2783 2898 2867 2819 2925 3128 3225 3268 3406 3515 3502 3466 3485 3546 3607 3701 3754 3657 3699
1977 1939 1934 1904 1842 1822 1868 1824 1785 1779 1871 1806 1792 1771 1859 2003 2096 2131 2322 2504 2326 2433 2615 2725 2785 2863 2850 2694 2828 2982 3195 3147 3365 3540 3546 3544 3572 3641 3597 3708 3675 3530
1983 1899 1850 1869 1835 1837 1846 1856 1816 1791 1828 1821 1800 1823 1877 1905 2175 2137 2182 2405 2361 2370 2546 2712 2766 2855 2914 2774 2585 2749 2982 3036 3154 3418 3378 3506 3570 3536 3646 3689 3540 3594
1932 1923 1954 1864 1929 1867 1906 1896 1852 1811 1801 1848 1822 1856 1876 1903 1988 2217 2265 2310 2462 2463 2439 2596 2760 2759 2906 2920 2784 2785 2928 3056 2893 3130 3207 3282 3398 3356 3331 3428 3492 3468
1954 2044 2075 2036 2012 2067 2074 1960 1917 1882 1920 1909 1957 1918 1885 1918 1926 2088 2323 2257 2344 2452 2484 2545 2746 2747 2882 2973 2906 2830 2922 2994 3005 2919 2989 3088 3243 3306 3181 3129 3297 3381
2107 2126 2203 2216 2129 2218 2221 2125 2053 2050 2030 2049 2112 2060 1969 1999 1968 1994 2117 2208 2180 2352 2437 2471 2462 2543 2598 2763 2832 2924 2911 2798 2953 2975 2961 3024 3155 3145 3215 3260 3211 3208
2309 2302 2394 2409 2315 2395 2444 2276 2154 2183 2135 2170 2238 2165 2160 2096 2090 2083 2041 2121 2178 2326 2444 2444 2432 2446 2444 2145 2304 2680 2902 2759 2788 2970 3046 2970 3124 3266 3179 3259 3297 3191
2568 2517 2482 2424 2399 2415 2421 2403 2304 2239 2214 2282 2215 2220 2170 2274 2247 2164 2099 2059 2085 2167 2278 2284 2320 2326 2084 1904 1795 1813 2355 2868 2940 3011 3169 3177 3097 3293 3360 3209 3252 3230
2351 2345 2336 2410 2427 2391 2411 2401 2329 2280 2304 2324 2240 2213 2299 2239 2238 2193 2245 2112 2103 2152 2146 2190 2281 2005 1825 1694 1604 1576 1621 2355 2693 2860 2866 2999 3112 3045 3138 3188 3145 3112
2351 2420 2384 2367 2387 2376 2396 2405 2365 2337 2314 2230 2124 2186 2200 2355 2307 2200 2276 2260 2146 2299 2201 2171 2241 1961 1739 1566 1498 1457 1510 1686 2326 2653 2790 2949 2986 3071 3079 3130 3210 3156
2484 2372 2336 2381 2410 2400 2416 2397 2327 2324 2239 2148 2091 2180 2308 2352 2284 2364 2407 2467 2340 2322 2381 2275 2235 2056 1870 1670 1513 1459 1472 1502 2232 2560 2786 2890 2911 2938 3049 3084 3203 3280
2428 2390 2429 2502 2505 2440 2418 2391 2351 2349 2262 2149 2084 2172 2404 2440 2342 2362 2399 2481 2432 2352 2384 2321 2158 1965 1870 1712 1609 1550 1545 1575 1985 2568 2750 2864 2944 3029 3136 3094 3142 3276
2353 2433 2475 2558 2546 2492 2469 2435 2436 2515 2490 2326 2194 2163 2272 2342 2391 2304 2395 2521 2478 2441 2342 2339 2275 1801 1666 1550 1512 1519 1533 1580 1734 2475 2702 2798 3015 3118 3185 3252 3250 3235
2241 2333 2464 2486 2530 2539 2516 2463 2555 2644 2597 2513 2393 2264 2260 2340 2437 2402 2495 2527 2575 2545 2504 2455 2489 2127 1733 1573 1474 1401 1355 1381 1813 2290 2592 2782 2864 3010 3156 3171 3209 3242
2387 2438 2516 2519 2573 2581 2580 2535 2557 2606 2614 2602 2528 2386 2312 2422 2500 2538 2554 2583 2536 2612 2549 2604 2519 2399 1949 1705 1583 1516 1472 1507 1938 2183 2411 2611 2827 2937 2999 3089 3134 2683
2606 2639 2666 2666 2743 2671 2548 2553 2554 2637 2590 2605 2576 2506 2506 2614 2566 2616 2686 2698 2605 2569 2326 2338 2576 2430 2089 2021 1937 1840 1734 1717 2038 2128 2253 2415 2461 2655 2813 2842 2975 2727
2709 2823 2817 2799 2915 2823 2718 2732 2737 2630 2692 2711 2677 2594 2674 2709 2738 2739 2786 2830 2785 2487 2493 2464 2419 2564 2418 2357 2270 2193 2102 2007 2123 2271 2279 2358 2461 2408 2606 2786 2829 2983
Wind_Speed
7 8 8 8 8 8 8 6 6 5 5 6 5 4 4 6 6 7 10 12 14 15 15 15 15 15 15 14 14 14 15 14 13 11 11 11 10 10 10 11 10 10
7 8 9 9 9 9 8 7 7 6 6 6 6 5 5 6 6 8 10 12 13 13 12 12 12 12 12 12 12 14 14 14 15 12 12 12 11 10 10 11 11 11
9 9 7 6 7 5 4 6 6 6 6 5 4 5 6 7 7 8 10 11 11 10 9 8 7 8 8 7 7 8 10 10 11 11 10 10 10 9 8 9 9 11
10 9 8 7 7 7 7 7 7 8 7 7 4 5 7 8 8 9 10 9 9 7 6 5 5 4 5 5 5 5 6 6 6 6 7 6 6 6 6 6 7 8
11 12 11 10 9 9 8 7 6 7 6 6 6 7 8 9 8 10 10 9 8 6 4 2 2 3 4 5 6 4 3 3 3 3 3 4 3 3 3 3 5 6
14 14 13 12 11 10 8 7 7 8 7 7 6 7 8 8 9 9 9 8 6 5 3 1 2 4 5 5 5 4 3 2 1 2 2 2 1 1 1 2 4 5
14 15 13 12 10 10 9 9 9 9 9 8 9 9 9 9 9 9 8 6 5 3 0 2 4 5 6 5 5 5 4 3 2 2 2 1 0 1 2 2 3 4
14 16 15 14 11 11 10 10 10 10 10 10 9 9 10 9 9 9 8 5 4 3 4 5 6 7 6 5 5 5 6 6 5 4 3 1 0 1 2 2 2 3
16 16 15 12 10 12 10 10 11 11 11 10 11 11 11 10 10 9 8 6 5 5 6 7 7 6 5 5 5 6 7 7 7 6 5 4 4 3 3 4 4 3
17 17 14 12 11 13 11 10 12 12 12 11 12 13 12 12 11 9 9 8 8 7 7 8 7 6 6 6 6 6 7 7 7 7 6 5 4 4 4 5 5 4
16 16 15 13 12 14 12 12 12 13 13 12 13 13 12 13 13 11 10 10 10 8 7 7 6 7 7 7 7 7 7 7 8 8 7 6 5 4 5 6 5 4
16 16 14 13 13 14 14 14 15 14 15 15 14 13 14 14 13 13 12 11 10 9 8 7 7 8 8 8 7 7 8 7 8 9 8 8 7 6 6 6 5 3
17 16 17 16 16 17 18 17 16 16 16 16 16 15 14 14 14 13 14 12 10 9 7 6 7 8 9 9 8 8 9 9 8 9 9 9 8 7 6 6 5 3
17 19 19 20 20 21 20 19 18 18 18 19 19 16 15 13 13 14 14 12 10 9 8 8 7 8 9 8 8 9 9 9 10 9 9 8 8 7 6 5 4 2
20 21 22 23 23 23 22 20 20 20 20 21 20 18 18 16 15 14 13 11 10 10 9 8 6 6 8 9 9 10 9 9 10 10 10 9 7 6 6 5 3 1
23 23 23 23 23 23 23 22 21 22 22 21 20 19 19 18 16 15 12 11 11 10 9 8 7 7 9 12 11 10 10 10 10 10 10 9 8 6 5 4 1 1
25 24 24 22 21 22 22 21 21 23 22 21 20 20 19 19 17 14 12 11 11 10 8 8 8 8 12 15 14 13 10 9 10 10 11 10 8 6 5 4 3 2
24 24 22 21 22 21 21 21 22 23 22 21 20 19 20 19 16 14 13 12 12 10 8 7 8 9 15 16 15 15 14 10 9 10 10 9 7 5 5 4 3 3
26 25 23 23 21 21 22 23 22 22 21 20 19 20 21 18 16 15 13 13 11 10 8 7 8 12 16 17 16 17 17 14 10 9 9 8 6 5 4 4 4 5
26 24 23 22 23 24 24 23 21 20 20 21 22 21 19 17 15 14 14 13 11 10 10 9 8 12 17 17 17 18 18 17 12 10 8 6 4 4 5 4 4 5
24 23 23 23 24 24 23 22 20 21 20 20 20 19 18 17 15 14 13 12 12 11 11 9 9 12 17 18 18 19 19 18 13 11 8 5 4 5 5 5 5 6
22 22 22 23 23 23 22 20 20 20 19 20 19 18 18 17 16 15 13 12 12 11 10 9 9 14 18 18 18 19 21 17 14 11 8 6 5 6 7 7 7 6
21 20 21 21 21 20 19 19 19 19 19 20 18 17 17 16 16 15 14 13 12 12 11 11 11 16 19 20 20 21 21 16 15 12 9 7 7 8 8 8 8 8
20 20 20 20 19 17 17 18 18 19 19 20 17 15 15 15 16 16 15 14 12 12 13 13 13 17 22 22 22 24 21 17 15 13 10 10 10 10 10 11 9 10
19 19 19 18 17 17 17 17 17 18 18 18 15 15 15 16 17 16 15 15 13 12 15 14 14 18 24 23 25 25 22 16 15 13 11 10 12 11 12 12 12 12
19 19 19 18 18 18 18 17 17 17 15 15 14 15 16 16 16 16 15 16 16 15 17 16 15 17 24 25 27 26 25 18 15 13 11 11 12 13 14 15 14 14
Wind_Direction
176 181 187 192 191 195 200 206 192 174 169 163 159 146 118 127 122 113 109 107 99 96 92 88 86 84 86 86 88 95 98 98 102 104 99 99 100 96 98 93 87 85
166 180 195 194 196 205 204 210 208 194 191 185 173 166 140 135 126 122 118 112 106 99 93 85 80 76 76 80 78 84 89 91 92 99 98 92 98 96 93 90 88 85
170 181 194 190 183 188 184 205 208 205 201 188 176 163 143 140 137 134 130 121 116 108 97 88 76 63 60 64 63 73 81 84 86 89 90 90 93 93 93 90 88 80
173 180 188 178 178 186 196 204 209 211 210 206 175 154 152 159 156 145 142 136 133 127 115 94 70 49 31 28 32 56 71 81 87 89 88 91 88 88 83 82 84 83
183 188 191 190 186 193 202 198 198 213 213 199 184 177 174 175 169 153 155 151 145 138 135 100 37 15 352 358 1 26 46 76 79 85 96 92 89 73 68 62 62 69
191 192 198 197 195 201 199 193 199 208 213 203 192 181 175 180 170 158 158 150 148 139 125 69 355 346 343 344 346 353 1 7 330 359 69 87 96 337 338 23 44 56
202 201 201 200 196 196 193 193 199 204 208 197 197 186 186 182 173 165 166 167 160 179 342 323 327 329 324 327 336 340 333 338 331 355 33 80 121 49 9 0 29 43
207 205 202 199 195 194 194 200 204 208 209 201 191 189 189 177 175 174 180 190 202 244 287 308 312 318 320 313 325 329 328 308 317 336 4 32 305 26 31 317 329 9
214 212 211 206 200 197 195 198 203 206 206 194 182 183 186 180 183 185 200 220 236 256 280 293 303 308 304 306 314 324 321 317 313 320 324 313 312 326 321 303 321 343
218 217 219 213 204 199 198 200 204 206 204 191 185 184 187 191 194 202 218 237 250 261 274 280 288 291 290 299 315 317 314 315 313 314 310 307 309 307 302 305 322 332
221 221 222 219 211 206 203 206 207 206 202 193 190 186 188 200 206 215 229 245 254 266 272 278 282 286 293 303 305 304 308 307 307 307 305 304 304 296 294 308 317 336
226 227 228 227 222 214 212 212 211 207 204 201 198 195 198 203 215 225 236 249 259 266 269 270 274 284 296 305 309 299 296 299 298 300 299 296 296 296 301 309 316 332
232 233 232 232 230 224 219 217 213 210 206 204 206 204 206 208 216 230 239 249 259 264 266 269 278 292 295 299 300 294 292 296 297 297 295 290 291 299 303 312 323 323
233 234 234 234 233 232 228 224 219 215 211 209 211 210 210 214 221 233 241 247 255 261 264 268 282 294 298 297 297 298 294 297 298 298 299 296 292 296 303 311 323 328
231 232 233 237 239 239 237 232 226 221 217 215 216 214 214 217 223 232 242 249 254 256 263 272 284 289 284 291 300 307 305 305 304 306 305 299 295 295 294 299 302 276
231 229 232 238 241 242 241 238 232 228 224 221 220 219 218 220 224 232 241 249 254 257 262 267 273 267 282 310 308 304 311 307 303 303 304 301 295 285 279 279 271 198
231 230 233 237 239 239 240 240 237 232 227 223 221 220 220 224 229 235 238 239 248 255 265 267 268 266 297 306 320 325 317 313 308 302 299 301 298 280 259 239 205 203
231 232 234 236 239 240 240 239 237 235 231 227 225 224 224 225 229 233 233 234 238 250 260 262 263 279 297 309 319 327 325 321 311 301 299 300 292 278 246 224 200 211
233 234 237 238 240 240 238 235 235 234 231 228 226 225 225 226 226 229 231 235 240 248 253 254 254 281 300 311 318 322 328 324 313 307 306 301 288 273 248 228 224 233
234 235 237 238 240 240 239 237 234 231 228 225 224 226 228 229 230 230 229 234 241 246 245 246 258 277 301 311 315 319 322 318 314 318 316 306 284 262 249 242 250 260
236 237 238 240 242 243 241 237 232 228 228 226 227 230 233 234 231 229 228 233 242 246 245 250 257 283 295 309 313 316 318 313 307 311 309 294 271 263 260 260 267 279
240 240 240 243 245 244 241 236 231 230 232 233 231 231 230 230 230 227 232 239 244 248 250 254 257 288 295 304 311 312 313 300 303 308 308 292 275 270 267 267 279 287
241 242 243 244 244 242 236 232 231 232 234 235 236 234 232 231 229 230 232 238 246 251 256 253 255 277 293 300 305 309 300 296 300 302 299 294 281 273 271 277 279 284
240 242 243 242 238 236 232 229 230 232 236 239 239 237 231 227 227 227 233 238 245 252 258 258 259 274 293 299 304 307 308 301 299 302 303 289 276 273 271 270 279 301
240 241 241 240 235 233 231 233 235 237 238 240 236 232 226 224 226 230 236 241 245 249 259 265 259 269 291 299 305 307 308 297 300 302 300 286 271 265 271 271 272 284
236 237 237 236 236 236 234 234 236 236 238 238 232 229 227 226 231 234 239 241 244 248 252 263 264 262 278 297 299 303 311 299 298 302 300 283 268 264 265 271 274 272